Regional Weather Roundup
Issued by NWS Goodland, KS

Home | Current Version | Previous Version | Text Only | Print | Product List | Glossary Off
Versions: 1 2 3 4 5 6 7 8 9 10 11 12 13 14 15 16 17 18 19 20 21 22 23 24 25 26 27 28 29 30 31 32 33 34 35 36 37 38 39 40 41 42 43 44 45 46 47 48 49 50

000
ASUS43 KGLD 212008
RWRGLD

GOODLAND FORECAST AREA HOURLY WEATHER ROUNDUP
NATIONAL WEATHER SERVICE GOODLAND KS
200 PM MDT SUN SEP 21 2014

...OFFICIAL OBSERVATIONS...

CITY           SKY/WX    TMP DP  RH WIND       PRES   REMARKS
GOODLAND KS    CLOUDY    73  37  27 E8        30.33F
HILL CITY KS   SUNNY     79  37  22 NE10      30.28F
IMPERIAL NEB   PTSUNNY   73  36  25 VRB6      30.32F
MCCOOK NEB     SUNNY     77  37  23 NE7       30.30F
AKRON CO       PTSUNNY   69  41  36 SE16G23   30.33F
BURLINGTON CO  MOSUNNY   74  37  26 E13       30.34F
LIMON CO       SUNNY     72  42  34 S16G28    30.35F
$$

...UNOFFICIAL OBSERVATIONS...

CITY           SKY/WX    TMP DP  RH WIND       PRES   REMARKS
COLBY KS       PTSUNNY   75  43  31 NE9       30.31F
GOVE KS          N/A     77  32  19 MISG        N/A
NORTON KS      SUNNY     75  28  17 N6        30.27F
SHARON SPRINGS   N/A     74  42  31 CALM        N/A
WAKEENEY KS      N/A     78  38  23 MISG        N/A
TRENTON NEB      N/A     75  32  20 E9          N/A
KIT CARSON CO    N/A     73  42  33 CALM        N/A
YUMA CO          N/A     71  41  34 SE12        N/A
$$


USA.gov is the U.S. government's official web portal to all federal, state and local government web resources and services.